sat.trackr.live / text

‹ back to catalog

STARLINK-2143

NORAD 47733 · 2021-017M

PAYLOAD ACTIVE UNKNOWN

§ Identity

Operator
Country
US
Launch date
2021-03-04
Launch site
AFETR
Launch vehicle
Mass (kg)
RCS (m²)

Purposes: comms

External: N2YO · Heavens-Above · Gunter

§ Orbital elements

Epoch: 2026-09-19T23:15:26.093664Z

Period
94.01 min
Inclination
53.1616°
Eccentricity
0.0001058
Mean motion
15.31698905 rev/d
Perigee alt
470.0 km
Apogee alt
471.5 km
Semi-major
6,848.9 km
B*
-1.5181e-5
RAAN
32.5501°
Arg perigee
89.9592°
Mean anomaly
270.1530°
Rev number
30,748

§ Raw data

STARLINK-21431 47733U 21017M   26262.96905201 -.00000836  00000+0 -15181-4 0  99932 47733  53.1616  32.5501 0001058  89.9592 270.1530 15.31698905307487

JSON: /api/v1/satellites/47733 · /tle

For live sub-satellite position, see the globe view (requires WebGL).

§ Visibility from observer

Set your observer location to see the next 7 days of passes ≥ 10°. The values pass through the URL so the page stays shareable.

No JS? Fill the form by hand. The geolocation button needs JavaScript.